Precipitable_Water
0.49 0.47 0.46 0.47 0.48 0.48 0.47 0.47 0.47 0.46 0.46 0.46 0.47 0.48 0.50 0.52 0.55 0.55 0.55 0.55 0.55 0.53 0.53 0.52 0.53 0.55 0.57 0.58 0.56 0.53 0.51 0.39 0.34 0.30 0.27 0.29 0.33 0.35 0.36 0.37 0.41 0.43 0.41 0.37 0.36 0.35 0.34 0.36 0.38 0.40 0.41 0.39 0.36 0.35 0.37 0.36 0.38 0.35 0.27 0.24 0.23 0.27 0.26 0.29 0.28 0.29 0.32 0.32 0.35 0.40 0.47 0.50 0.48 0.60 0.65 0.76 0.70 0.69 0.71 0.70 0.77 0.85 0.84 0.89 0.93 0.99 1.04 1.09
0.54 0.51 0.49 0.47 0.46 0.46 0.46 0.47 0.47 0.46 0.46 0.46 0.46 0.46 0.47 0.47 0.48 0.50 0.53 0.54 0.54 0.53 0.52 0.51 0.52 0.56 0.59 0.58 0.57 0.55 0.47 0.38 0.31 0.30 0.27 0.33 0.34 0.35 0.39 0.39 0.42 0.44 0.42 0.33 0.32 0.35 0.35 0.35 0.37 0.40 0.38 0.36 0.40 0.35 0.39 0.36 0.40 0.33 0.30 0.27 0.24 0.29 0.29 0.34 0.32 0.34 0.33 0.33 0.37 0.41 0.49 0.50 0.47 0.54 0.67 0.56 0.56 0.60 0.58 0.64 0.69 0.65 0.74 0.83 0.90 0.96 0.97 1.02
0.54 0.54 0.54 0.52 0.50 0.48 0.47 0.46 0.45 0.45 0.46 0.46 0.46 0.46 0.46 0.45 0.44 0.43 0.46 0.48 0.51 0.52 0.51 0.51 0.53 0.55 0.58 0.58 0.57 0.56 0.47 0.35 0.29 0.23 0.27 0.34 0.38 0.36 0.40 0.42 0.42 0.42 0.40 0.31 0.34 0.36 0.35 0.36 0.38 0.38 0.36 0.35 0.37 0.34 0.37 0.35 0.37 0.35 0.31 0.26 0.27 0.31 0.31 0.34 0.34 0.33 0.35 0.36 0.37 0.41 0.48 0.50 0.53 0.58 0.73 0.55 0.54 0.60 0.53 0.52 0.59 0.57 0.56 0.66 0.79 0.88 0.93 0.97
0.57 0.55 0.55 0.55 0.55 0.54 0.52 0.49 0.46 0.45 0.45 0.46 0.46 0.47 0.47 0.46 0.45 0.44 0.43 0.43 0.46 0.50 0.51 0.52 0.54 0.56 0.57 0.57 0.58 0.55 0.47 0.30 0.20 0.23 0.30 0.33 0.34 0.40 0.40 0.41 0.42 0.41 0.38 0.34 0.37 0.37 0.39 0.39 0.38 0.37 0.34 0.33 0.33 0.35 0.32 0.35 0.34 0.35 0.31 0.27 0.27 0.31 0.30 0.31 0.34 0.34 0.35 0.38 0.38 0.42 0.48 0.49 0.55 0.61 0.63 0.59 0.53 0.54 0.58 0.64 0.58 0.55 0.57 0.65 0.76 0.83 0.89 0.92
0.64 0.61 0.59 0.57 0.56 0.56 0.55 0.54 0.52 0.49 0.46 0.45 0.45 0.46 0.47 0.46 0.45 0.45 0.44 0.44 0.44 0.46 0.49 0.52 0.56 0.58 0.57 0.59 0.57 0.58 0.38 0.21 0.19 0.30 0.33 0.36 0.38 0.38 0.41 0.42 0.43 0.40 0.37 0.35 0.38 0.38 0.38 0.36 0.35 0.35 0.33 0.29 0.32 0.32 0.31 0.33 0.35 0.35 0.31 0.31 0.31 0.32 0.30 0.32 0.34 0.35 0.36 0.39 0.40 0.42 0.43 0.45 0.60 0.64 0.62 0.60 0.49 0.47 0.55 0.61 0.69 0.67 0.66 0.67 0.71 0.81 0.87 0.87
0.67 0.66 0.64 0.63 0.62 0.60 0.58 0.55 0.54 0.53 0.51 0.48 0.45 0.45 0.45 0.45 0.46 0.46 0.45 0.44 0.44 0.43 0.45 0.51 0.59 0.61 0.59 0.58 0.56 0.52 0.38 0.18 0.26 0.31 0.43 0.39 0.38 0.39 0.42 0.43 0.42 0.40 0.37 0.36 0.35 0.35 0.34 0.33 0.33 0.30 0.30 0.30 0.29 0.28 0.29 0.31 0.33 0.27 0.30 0.32 0.33 0.33 0.30 0.32 0.34 0.35 0.36 0.36 0.38 0.39 0.44 0.52 0.53 0.55 0.63 0.63 0.53 0.57 0.68 0.70 0.71 0.72 0.72 0.77 0.81 0.83 0.80 0.84
0.69 0.67 0.66 0.67 0.66 0.65 0.63 0.61 0.58 0.55 0.53 0.52 0.50 0.48 0.45 0.45 0.45 0.45 0.45 0.45 0.44 0.44 0.43 0.47 0.59 0.65 0.60 0.57 0.59 0.44 0.36 0.31 0.36 0.34 0.43 0.41 0.40 0.39 0.40 0.41 0.40 0.34 0.35 0.34 0.34 0.32 0.32 0.31 0.31 0.29 0.28 0.28 0.28 0.28 0.28 0.28 0.30 0.28 0.26 0.29 0.30 0.31 0.30 0.31 0.32 0.34 0.34 0.34 0.35 0.41 0.48 0.45 0.50 0.47 0.60 0.58 0.60 0.66 0.72 0.75 0.74 0.77 0.79 0.81 0.77 0.81 0.78 0.81
0.71 0.70 0.69 0.67 0.66 0.65 0.64 0.64 0.63 0.60 0.57 0.55 0.52 0.51 0.49 0.46 0.45 0.45 0.45 0.44 0.44 0.44 0.44 0.46 0.57 0.65 0.63 0.48 0.37 0.35 0.35 0.32 0.39 0.45 0.45 0.42 0.38 0.37 0.34 0.32 0.33 0.31 0.31 0.33 0.33 0.31 0.32 0.29 0.28 0.30 0.28 0.26 0.27 0.27 0.27 0.27 0.27 0.24 0.25 0.27 0.28 0.30 0.30 0.31 0.31 0.31 0.32 0.33 0.37 0.41 0.40 0.41 0.47 0.49 0.57 0.52 0.59 0.68 0.73 0.79 0.77 0.76 0.78 0.78 0.78 0.78 0.80 0.81
0.69 0.69 0.70 0.70 0.68 0.66 0.65 0.63 0.62 0.62 0.62 0.59 0.56 0.53 0.51 0.50 0.49 0.46 0.45 0.44 0.44 0.45 0.44 0.47 0.56 0.65 0.65 0.47 0.33 0.31 0.32 0.44 0.48 0.52 0.47 0.42 0.34 0.30 0.28 0.25 0.30 0.31 0.31 0.34 0.34 0.33 0.31 0.30 0.30 0.30 0.25 0.26 0.28 0.25 0.26 0.24 0.22 0.26 0.24 0.26 0.27 0.27 0.28 0.28 0.28 0.28 0.29 0.32 0.35 0.36 0.37 0.42 0.48 0.57 0.48 0.52 0.60 0.70 0.77 0.77 0.78 0.76 0.72 0.73 0.75 0.78 0.80 0.81
0.66 0.67 0.68 0.67 0.67 0.67 0.66 0.65 0.63 0.62 0.61 0.61 0.60 0.57 0.54 0.51 0.50 0.50 0.48 0.46 0.45 0.45 0.45 0.49 0.58 0.66 0.56 0.42 0.36 0.27 0.38 0.50 0.48 0.53 0.48 0.42 0.34 0.29 0.29 0.29 0.31 0.33 0.32 0.33 0.34 0.32 0.28 0.31 0.30 0.32 0.30 0.27 0.28 0.25 0.26 0.24 0.22 0.26 0.25 0.25 0.25 0.26 0.26 0.27 0.26 0.27 0.28 0.29 0.33 0.32 0.34 0.39 0.49 0.48 0.37 0.53 0.62 0.71 0.72 0.72 0.77 0.74 0.68 0.72 0.73 0.76 0.81 0.82
0.64 0.65 0.66 0.67 0.67 0.66 0.66 0.66 0.65 0.64 0.61 0.59 0.59 0.58 0.55 0.52 0.51 0.52 0.51 0.49 0.47 0.46 0.46 0.52 0.62 0.63 0.46 0.43 0.35 0.28 0.41 0.48 0.49 0.50 0.50 0.43 0.35 0.29 0.30 0.33 0.33 0.32 0.33 0.34 0.33 0.32 0.31 0.30 0.33 0.33 0.29 0.25 0.26 0.24 0.25 0.24 0.25 0.24 0.24 0.24 0.24 0.25 0.25 0.25 0.25 0.25 0.28 0.27 0.32 0.32 0.33 0.42 0.45 0.47 0.35 0.48 0.63 0.69 0.64 0.67 0.70 0.72 0.69 0.71 0.72 0.73 0.79 0.81
0.61 0.62 0.63 0.63 0.64 0.64 0.64 0.65 0.65 0.65 0.64 0.61 0.58 0.56 0.56 0.54 0.55 0.54 0.52 0.51 0.50 0.48 0.50 0.54 0.61 0.60 0.49 0.40 0.38 0.34 0.43 0.46 0.51 0.46 0.48 0.43 0.37 0.34 0.33 0.34 0.35 0.34 0.34 0.33 0.32 0.33 0.33 0.31 0.31 0.28 0.22 0.28 0.22 0.25 0.24 0.28 0.26 0.25 0.24 0.20 0.22 0.23 0.22 0.23 0.22 0.24 0.26 0.25 0.32 0.35 0.32 0.32 0.38 0.32 0.39 0.51 0.63 0.65 0.63 0.64 0.67 0.69 0.70 0.72 0.74 0.72 0.73 0.76
0.58 0.59 0.60 0.61 0.61 0.61 0.61 0.62 0.63 0.64 0.64 0.64 0.58 0.55 0.57 0.57 0.56 0.55 0.58 0.60 0.61 0.58 0.58 0.63 0.66 0.62 0.46 0.34 0.39 0.47 0.46 0.51 0.51 0.47 0.44 0.44 0.40 0.39 0.36 0.35 0.35 0.35 0.35 0.32 0.32 0.33 0.34 0.32 0.31 0.25 0.27 0.25 0.24 0.21 0.26 0.27 0.26 0.26 0.24 0.22 0.20 0.20 0.19 0.22 0.24 0.25 0.25 0.27 0.34 0.33 0.21 0.22 0.28 0.33 0.42 0.53 0.58 0.62 0.59 0.60 0.64 0.67 0.68 0.70 0.71 0.68 0.68 0.74
0.58 0.57 0.56 0.56 0.57 0.57 0.58 0.58 0.59 0.60 0.62 0.64 0.58 0.55 0.57 0.58 0.57 0.61 0.65 0.67 0.70 0.68 0.70 0.73 0.71 0.60 0.44 0.35 0.42 0.49 0.50 0.51 0.53 0.46 0.41 0.43 0.38 0.36 0.36 0.36 0.36 0.35 0.36 0.33 0.33 0.34 0.32 0.33 0.30 0.28 0.29 0.25 0.23 0.28 0.24 0.24 0.25 0.21 0.22 0.22 0.18 0.18 0.17 0.22 0.23 0.25 0.23 0.31 0.34 0.31 0.19 0.20 0.25 0.31 0.44 0.54 0.58 0.54 0.52 0.57 0.61 0.64 0.65 0.66 0.67 0.65 0.64 0.69
0.64 0.61 0.58 0.55 0.53 0.52 0.52 0.53 0.54 0.56 0.58 0.61 0.58 0.56 0.58 0.57 0.63 0.65 0.67 0.65 0.68 0.73 0.75 0.77 0.72 0.54 0.41 0.39 0.49 0.59 0.57 0.52 0.49 0.50 0.50 0.41 0.37 0.35 0.34 0.35 0.34 0.34 0.34 0.33 0.32 0.33 0.33 0.32 0.29 0.26 0.24 0.28 0.27 0.23 0.21 0.21 0.22 0.22 0.19 0.17 0.19 0.18 0.18 0.22 0.24 0.25 0.21 0.29 0.37 0.30 0.20 0.20 0.23 0.27 0.39 0.51 0.55 0.55 0.49 0.54 0.59 0.61 0.62 0.64 0.64 0.62 0.64 0.66
0.76 0.74 0.72 0.67 0.62 0.56 0.53 0.50 0.49 0.50 0.56 0.59 0.56 0.56 0.59 0.61 0.65 0.66 0.67 0.67 0.70 0.73 0.75 0.59 0.59 0.52 0.42 0.36 0.49 0.66 0.57 0.46 0.46 0.50 0.52 0.49 0.43 0.36 0.37 0.35 0.34 0.33 0.31 0.30 0.33 0.34 0.33 0.31 0.25 0.25 0.25 0.26 0.23 0.21 0.20 0.19 0.19 0.21 0.19 0.17 0.17 0.19 0.19 0.20 0.22 0.24 0.25 0.28 0.34 0.29 0.19 0.22 0.23 0.28 0.36 0.46 0.49 0.51 0.49 0.52 0.57 0.59 0.60 0.62 0.61 0.61 0.63 0.66
0.79 0.78 0.77 0.76 0.74 0.70 0.66 0.62 0.56 0.53 0.54 0.57 0.57 0.56 0.61 0.64 0.67 0.67 0.69 0.69 0.70 0.74 0.67 0.54 0.58 0.57 0.36 0.50 0.59 0.47 0.47 0.50 0.54 0.53 0.53 0.54 0.49 0.44 0.40 0.35 0.33 0.33 0.33 0.33 0.33 0.32 0.31 0.27 0.27 0.25 0.25 0.22 0.23 0.22 0.18 0.17 0.16 0.17 0.21 0.17 0.19 0.18 0.19 0.18 0.22 0.23 0.25 0.26 0.24 0.31 0.25 0.22 0.24 0.29 0.36 0.47 0.47 0.48 0.47 0.49 0.54 0.57 0.58 0.61 0.62 0.62 0.62 0.62
0.83 0.82 0.81 0.79 0.75 0.72 0.71 0.69 0.67 0.64 0.61 0.60 0.57 0.55 0.56 0.62 0.67 0.66 0.65 0.67 0.70 0.71 0.67 0.72 0.61 0.48 0.40 0.50 0.39 0.42 0.54 0.52 0.53 0.54 0.56 0.58 0.53 0.48 0.42 0.35 0.35 0.34 0.34 0.31 0.32 0.28 0.30 0.25 0.25 0.20 0.21 0.21 0.22 0.21 0.17 0.15 0.16 0.16 0.17 0.17 0.17 0.19 0.19 0.19 0.19 0.21 0.23 0.28 0.23 0.25 0.25 0.23 0.25 0.29 0.34 0.43 0.51 0.48 0.44 0.47 0.51 0.55 0.57 0.59 0.61 0.61 0.61 0.62
0.83 0.83 0.83 0.82 0.79 0.74 0.71 0.68 0.66 0.68 0.68 0.68 0.66 0.65 0.64 0.63 0.63 0.63 0.53 0.52 0.47 0.42 0.37 0.47 0.45 0.32 0.29 0.38 0.47 0.48 0.50 0.58 0.60 0.55 0.53 0.55 0.56 0.51 0.46 0.41 0.36 0.34 0.30 0.28 0.28 0.27 0.28 0.25 0.24 0.19 0.16 0.18 0.20 0.21 0.19 0.20 0.19 0.18 0.19 0.18 0.18 0.17 0.17 0.18 0.21 0.23 0.22 0.20 0.21 0.23 0.21 0.22 0.24 0.27 0.33 0.41 0.49 0.48 0.47 0.52 0.53 0.55 0.57 0.59 0.61 0.61 0.62 0.61
0.78 0.79 0.81 0.81 0.81 0.78 0.73 0.70 0.66 0.66 0.67 0.66 0.63 0.61 0.57 0.48 0.46 0.46 0.54 0.49 0.43 0.41 0.40 0.41 0.45 0.43 0.43 0.44 0.44 0.50 0.53 0.52 0.43 0.51 0.52 0.55 0.54 0.49 0.43 0.40 0.35 0.34 0.31 0.26 0.27 0.29 0.28 0.22 0.18 0.16 0.15 0.18 0.22 0.23 0.23 0.23 0.22 0.21 0.20 0.19 0.19 0.19 0.18 0.20 0.21 0.22 0.24 0.21 0.20 0.21 0.22 0.23 0.24 0.27 0.30 0.38 0.46 0.48 0.49 0.47 0.48 0.50 0.54 0.57 0.60 0.61 0.63 0.63
0.71 0.73 0.74 0.76 0.79 0.79 0.76 0.72 0.69 0.66 0.66 0.66 0.62 0.54 0.46 0.46 0.41 0.40 0.47 0.50 0.51 0.50 0.47 0.46 0.44 0.42 0.37 0.42 0.45 0.46 0.42 0.43 0.45 0.44 0.46 0.54 0.53 0.48 0.41 0.39 0.34 0.30 0.30 0.29 0.27 0.31 0.28 0.23 0.19 0.19 0.19 0.19 0.22 0.25 0.25 0.24 0.23 0.21 0.20 0.20 0.19 0.19 0.18 0.20 0.20 0.22 0.24 0.20 0.18 0.22 0.23 0.24 0.24 0.28 0.32 0.38 0.41 0.38 0.41 0.44 0.45 0.46 0.51 0.55 0.59 0.60 0.62 0.64
0.69 0.69 0.69 0.68 0.71 0.75 0.76 0.74 0.70 0.66 0.68 0.65 0.58 0.52 0.54 0.54 0.57 0.59 0.54 0.41 0.49 0.52 0.50 0.49 0.50 0.46 0.49 0.45 0.46 0.46 0.45 0.39 0.40 0.44 0.50 0.50 0.47 0.42 0.41 0.37 0.33 0.29 0.31 0.31 0.29 0.26 0.24 0.22 0.20 0.21 0.23 0.23 0.22 0.23 0.24 0.23 0.22 0.22 0.21 0.21 0.19 0.19 0.21 0.21 0.21 0.22 0.22 0.21 0.18 0.20 0.20 0.22 0.23 0.27 0.32 0.34 0.34 0.34 0.40 0.42 0.41 0.43 0.46 0.51 0.58 0.60 0.61 0.65
0.70 0.70 0.68 0.67 0.65 0.66 0.70 0.73 0.70 0.66 0.64 0.59 0.54 0.53 0.52 0.58 0.64 0.67 0.61 0.49 0.43 0.50 0.49 0.49 0.47 0.48 0.48 0.50 0.47 0.47 0.38 0.35 0.34 0.40 0.44 0.48 0.43 0.43 0.41 0.37 0.34 0.33 0.33 0.31 0.26 0.24 0.22 0.21 0.23 0.25 0.25 0.23 0.22 0.22 0.22 0.22 0.22 0.22 0.23 0.21 0.19 0.21 0.19 0.17 0.20 0.21 0.22 0.21 0.18 0.20 0.19 0.20 0.23 0.26 0.27 0.32 0.33 0.34 0.41 0.44 0.46 0.49 0.46 0.47 0.52 0.58 0.59 0.61
0.70 0.71 0.70 0.67 0.64 0.62 0.63 0.70 0.70 0.62 0.60 0.63 0.57 0.54 0.59 0.62 0.65 0.66 0.53 0.42 0.38 0.44 0.47 0.50 0.50 0.50 0.50 0.47 0.51 0.46 0.39 0.38 0.39 0.36 0.47 0.45 0.40 0.45 0.41 0.39 0.35 0.34 0.32 0.32 0.30 0.27 0.25 0.23 0.26 0.26 0.25 0.24 0.22 0.22 0.22 0.21 0.21 0.24 0.24 0.23 0.21 0.20 0.21 0.21 0.20 0.22 0.22 0.21 0.21 0.19 0.18 0.18 0.20 0.20 0.22 0.26 0.33 0.34 0.35 0.41 0.44 0.48 0.50 0.53 0.58 0.61 0.63 0.61
0.72 0.72 0.72 0.70 0.64 0.61 0.58 0.70 0.63 0.61 0.64 0.64 0.61 0.61 0.63 0.64 0.65 0.67 0.51 0.46 0.45 0.43 0.59 0.56 0.58 0.56 0.56 0.63 0.60 0.47 0.46 0.44 0.43 0.44 0.47 0.46 0.43 0.42 0.40 0.43 0.38 0.32 0.33 0.34 0.32 0.29 0.28 0.27 0.28 0.26 0.25 0.25 0.23 0.22 0.23 0.23 0.22 0.23 0.25 0.24 0.24 0.24 0.22 0.23 0.22 0.21 0.19 0.17 0.19 0.19 0.14 0.14 0.18 0.19 0.20 0.23 0.27 0.27 0.32 0.33 0.35 0.39 0.46 0.50 0.50 0.53 0.60 0.65
0.73 0.73 0.73 0.72 0.68 0.62 0.59 0.60 0.61 0.67 0.60 0.58 0.60 0.64 0.66 0.67 0.66 0.69 0.56 0.41 0.33 0.41 0.50 0.40 0.57 0.49 0.62 0.54 0.58 0.54 0.52 0.43 0.50 0.52 0.53 0.50 0.50 0.44 0.42 0.38 0.38 0.31 0.33 0.32 0.31 0.30 0.30 0.30 0.27 0.26 0.25 0.25 0.24 0.24 0.25 0.25 0.22 0.22 0.23 0.27 0.27 0.25 0.24 0.23 0.22 0.21 0.17 0.15 0.19 0.21 0.14 0.12 0.17 0.17 0.19 0.21 0.24 0.24 0.30 0.31 0.33 0.37 0.41 0.44 0.45 0.50 0.55 0.59
0.72 0.71 0.71 0.70 0.68 0.64 0.46 0.44 0.62 0.64 0.50 0.49 0.58 0.65 0.66 0.65 0.67 0.65 0.46 0.35 0.29 0.44 0.37 0.46 0.52 0.50 0.57 0.52 0.53 0.51 0.34 0.37 0.48 0.49 0.49 0.51 0.44 0.49 0.39 0.36 0.36 0.36 0.36 0.35 0.31 0.28 0.32 0.30 0.27 0.26 0.25 0.24 0.24 0.23 0.26 0.26 0.23 0.22 0.27 0.28 0.27 0.26 0.24 0.23 0.22 0.22 0.20 0.22 0.22 0.20 0.18 0.13 0.12 0.16 0.19 0.21 0.22 0.23 0.26 0.29 0.31 0.34 0.37 0.40 0.42 0.46 0.51 0.56
0.70 0.70 0.69 0.67 0.64 0.62 0.48 0.52 0.50 0.47 0.51 0.56 0.60 0.60 0.65 0.64 0.66 0.63 0.42 0.24 0.24 0.45 0.36 0.41 0.45 0.57 0.50 0.49 0.52 0.44 0.42 0.47 0.38 0.44 0.50 0.50 0.49 0.45 0.42 0.37 0.35 0.35 0.36 0.35 0.26 0.33 0.33 0.29 0.27 0.25 0.24 0.24 0.24 0.26 0.27 0.27 0.25 0.25 0.29 0.29 0.28 0.27 0.26 0.25 0.23 0.22 0.22 0.20 0.18 0.19 0.20 0.15 0.13 0.16 0.20 0.22 0.19 0.20 0.21 0.24 0.26 0.29 0.33 0.36 0.40 0.44 0.48 0.53
0.70 0.71 0.69 0.65 0.61 0.58 0.59 0.51 0.46 0.43 0.54 0.60 0.60 0.61 0.59 0.61 0.56 0.47 0.34 0.23 0.35 0.38 0.53 0.38 0.58 0.51 0.47 0.49 0.44 0.44 0.44 0.46 0.37 0.46 0.51 0.50 0.50 0.45 0.39 0.41 0.39 0.37 0.37 0.35 0.31 0.34 0.36 0.35 0.34 0.31 0.28 0.25 0.28 0.29 0.29 0.28 0.25 0.28 0.30 0.30 0.30 0.30 0.29 0.27 0.24 0.22 0.22 0.20 0.17 0.19 0.21 0.15 0.13 0.16 0.17 0.21 0.20 0.19 0.20 0.22 0.24 0.27 0.29 0.32 0.36 0.41 0.46 0.52
0.69 0.69 0.69 0.65 0.57 0.53 0.50 0.52 0.46 0.52 0.54 0.57 0.60 0.58 0.58 0.54 0.45 0.33 0.28 0.21 0.46 0.32 0.42 0.43 0.41 0.38 0.43 0.39 0.41 0.44 0.42 0.44 0.46 0.47 0.48 0.44 0.46 0.48 0.46 0.48 0.42 0.39 0.37 0.38 0.35 0.36 0.38 0.42 0.39 0.34 0.31 0.31 0.31 0.31 0.31 0.30 0.30 0.32 0.30 0.28 0.28 0.28 0.28 0.29 0.27 0.25 0.22 0.18 0.20 0.22 0.22 0.19 0.13 0.15 0.16 0.16 0.17 0.19 0.20 0.22 0.23 0.24 0.28 0.32 0.36 0.39 0.42 0.47
0.68 0.67 0.65 0.66 0.51 0.52 0.49 0.37 0.48 0.48 0.50 0.56 0.56 0.52 0.48 0.41 0.31 0.27 0.21 0.28 0.39 0.36 0.42 0.39 0.37 0.43 0.38 0.35 0.33 0.41 0.42 0.43 0.44 0.45 0.42 0.46 0.43 0.43 0.43 0.41 0.45 0.40 0.39 0.39 0.37 0.38 0.38 0.38 0.37 0.38 0.39 0.36 0.34 0.31 0.33 0.33 0.32 0.31 0.29 0.27 0.26 0.25 0.27 0.26 0.25 0.26 0.19 0.17 0.22 0.23 0.22 0.21 0.14 0.14 0.17 0.20 0.21 0.22 0.21 0.21 0.21 0.21 0.23 0.28 0.33 0.37 0.41 0.45
0.67 0.66 0.63 0.59 0.58 0.59 0.42 0.35 0.44 0.49 0.49 0.54 0.50 0.40 0.36 0.26 0.31 0.22 0.23 0.42 0.25 0.33 0.35 0.35 0.39 0.38 0.37 0.39 0.36 0.37 0.37 0.41 0.44 0.43 0.41 0.41 0.40 0.38 0.39 0.35 0.38 0.33 0.32 0.35 0.34 0.41 0.37 0.38 0.40 0.40 0.44 0.39 0.35 0.32 0.32 0.34 0.33 0.31 0.30 0.28 0.23 0.21 0.22 0.19 0.21 0.19 0.18 0.17 0.23 0.24 0.24 0.19 0.18 0.17 0.19 0.20 0.21 0.22 0.24 0.24 0.23 0.24 0.25 0.29 0.33 0.36 0.39 0.44
0.68 0.65 0.61 0.57 0.58 0.51 0.49 0.50 0.52 0.48 0.49 0.52 0.41 0.38 0.28 0.22 0.18 0.25 0.26 0.29 0.24 0.38 0.34 0.38 0.35 0.36 0.37 0.36 0.34 0.37 0.41 0.35 0.44 0.43 0.43 0.43 0.40 0.40 0.42 0.41 0.42 0.38 0.30 0.36 0.35 0.34 0.34 0.41 0.41 0.42 0.41 0.42 0.38 0.31 0.30 0.31 0.33 0.32 0.30 0.28 0.23 0.19 0.19 0.17 0.19 0.21 0.20 0.22 0.26 0.25 0.27 0.19 0.21 0.22 0.23 0.21 0.23 0.24 0.26 0.28 0.28 0.28 0.29 0.32 0.34 0.36 0.39 0.43
0.69 0.65 0.56 0.53 0.54 0.55 0.53 0.54 0.53 0.51 0.43 0.42 0.35 0.31 0.27 0.20 0.20 0.39 0.26 0.27 0.25 0.34 0.33 0.30 0.29 0.30 0.30 0.27 0.32 0.36 0.33 0.41 0.39 0.40 0.42 0.38 0.39 0.36 0.39 0.42 0.43 0.40 0.38 0.37 0.32 0.33 0.27 0.28 0.37 0.40 0.36 0.44 0.41 0.39 0.37 0.35 0.35 0.34 0.35 0.32 0.28 0.25 0.20 0.17 0.18 0.17 0.18 0.20 0.23 0.28 0.23 0.19 0.19 0.21 0.29 0.29 0.30 0.31 0.31 0.32 0.35 0.35 0.35 0.35 0.37 0.37 0.39 0.42
0.69 0.63 0.61 0.54 0.53 0.58 0.57 0.56 0.54 0.49 0.41 0.34 0.29 0.25 0.20 0.19 0.23 0.21 0.23 0.26 0.29 0.30 0.27 0.30 0.26 0.25 0.23 0.26 0.30 0.31 0.31 0.29 0.37 0.37 0.37 0.36 0.35 0.36 0.37 0.39 0.42 0.42 0.40 0.32 0.34 0.34 0.30 0.30 0.37 0.45 0.44 0.45 0.42 0.44 0.43 0.39 0.36 0.37 0.36 0.35 0.29 0.26 0.29 0.21 0.22 0.22 0.21 0.20 0.20 0.23 0.22 0.25 0.23 0.29 0.34 0.35 0.35 0.34 0.33 0.33 0.34 0.35 0.37 0.37 0.37 0.36 0.38 0.39
0.66 0.58 0.59 0.51 0.51 0.56 0.60 0.58 0.54 0.47 0.37 0.29 0.24 0.22 0.20 0.21 0.19 0.26 0.23 0.33 0.30 0.26 0.26 0.27 0.27 0.23 0.23 0.23 0.28 0.26 0.33 0.26 0.30 0.30 0.33 0.35 0.37 0.36 0.41 0.41 0.41 0.42 0.38 0.33 0.35 0.29 0.30 0.26 0.36 0.42 0.44 0.43 0.44 0.44 0.43 0.43 0.31 0.35 0.35 0.30 0.31 0.35 0.31 0.26 0.25 0.27 0.26 0.23 0.18 0.24 0.23 0.26 0.30 0.30 0.32 0.35 0.35 0.35 0.35 0.33 0.34 0.34 0.36 0.37 0.36 0.37 0.39 0.41
0.57 0.56 0.43 0.48 0.51 0.59 0.60 0.60 0.54 0.43 0.34 0.27 0.22 0.19 0.22 0.23 0.25 0.26 0.28 0.26 0.27 0.28 0.25 0.19 0.18 0.19 0.20 0.21 0.25 0.27 0.27 0.30 0.29 0.27 0.24 0.31 0.31 0.38 0.40 0.42 0.47 0.47 0.49 0.42 0.35 0.38 0.29 0.26 0.35 0.36 0.36 0.43 0.46 0.45 0.44 0.43 0.42 0.38 0.32 0.35 0.39 0.39 0.35 0.29 0.22 0.23 0.22 0.19 0.18 0.23 0.20 0.22 0.23 0.21 0.33 0.35 0.35 0.36 0.35 0.33 0.34 0.37 0.38 0.37 0.37 0.39 0.41 0.43
0.54 0.49 0.47 0.49 0.53 0.64 0.64 0.61 0.54 0.40 0.30 0.25 0.21 0.21 0.28 0.22 0.28 0.25 0.27 0.27 0.26 0.26 0.21 0.19 0.19 0.23 0.19 0.20 0.19 0.21 0.23 0.20 0.23 0.24 0.23 0.29 0.26 0.43 0.40 0.40 0.48 0.47 0.50 0.53 0.39 0.37 0.39 0.27 0.29 0.36 0.37 0.41 0.46 0.45 0.42 0.44 0.45 0.39 0.37 0.44 0.34 0.29 0.27 0.31 0.27 0.20 0.19 0.18 0.18 0.20 0.22 0.22 0.24 0.25 0.31 0.32 0.33 0.34 0.35 0.34 0.33 0.34 0.38 0.39 0.40 0.42 0.45 0.49
0.53 0.44 0.33 0.54 0.61 0.67 0.66 0.65 0.51 0.37 0.28 0.23 0.22 0.20 0.25 0.25 0.29 0.27 0.27 0.26 0.26 0.23 0.19 0.21 0.18 0.22 0.23 0.19 0.21 0.22 0.22 0.18 0.21 0.20 0.18 0.23 0.23 0.38 0.39 0.42 0.41 0.48 0.49 0.51 0.43 0.44 0.46 0.30 0.27 0.36 0.35 0.40 0.41 0.41 0.33 0.37 0.44 0.44 0.43 0.39 0.42 0.36 0.32 0.29 0.28 0.28 0.25 0.20 0.20 0.18 0.22 0.19 0.27 0.29 0.32 0.32 0.34 0.35 0.35 0.34 0.34 0.34 0.36 0.38 0.40 0.43 0.45 0.48
0.43 0.33 0.31 0.58 0.61 0.69 0.68 0.60 0.44 0.35 0.27 0.21 0.22 0.21 0.28 0.23 0.25 0.27 0.28 0.26 0.23 0.22 0.21 0.20 0.25 0.20 0.20 0.19 0.20 0.18 0.20 0.19 0.19 0.20 0.19 0.22 0.22 0.37 0.33 0.43 0.38 0.43 0.49 0.51 0.45 0.50 0.39 0.41 0.26 0.33 0.40 0.39 0.31 0.36 0.36 0.39 0.38 0.40 0.38 0.36 0.37 0.36 0.39 0.36 0.34 0.29 0.25 0.23 0.21 0.20 0.18 0.21 0.27 0.33 0.34 0.34 0.35 0.36 0.36 0.35 0.35 0.36 0.37 0.39 0.42 0.44 0.46 0.48
0.48 0.33 0.32 0.60 0.59 0.70 0.65 0.51 0.36 0.30 0.25 0.27 0.26 0.23 0.24 0.21 0.24 0.25 0.28 0.29 0.26 0.28 0.22 0.21 0.20 0.18 0.19 0.18 0.17 0.21 0.19 0.21 0.20 0.18 0.19 0.21 0.22 0.19 0.37 0.36 0.40 0.36 0.44 0.43 0.42 0.46 0.37 0.39 0.31 0.34 0.34 0.34 0.37 0.45 0.44 0.44 0.45 0.42 0.42 0.40 0.42 0.36 0.32 0.28 0.26 0.34 0.30 0.27 0.23 0.22 0.18 0.24 0.31 0.36 0.35 0.35 0.37 0.37 0.38 0.39 0.39 0.38 0.40 0.41 0.43 0.46 0.49 0.51
0.37 0.26 0.28 0.55 0.59 0.61 0.53 0.34 0.34 0.36 0.29 0.25 0.24 0.26 0.24 0.32 0.26 0.27 0.27 0.29 0.28 0.24 0.29 0.24 0.24 0.21 0.20 0.20 0.21 0.23 0.22 0.21 0.22 0.19 0.22 0.19 0.30 0.28 0.34 0.41 0.39 0.41 0.36 0.32 0.37 0.50 0.44 0.41 0.36 0.29 0.32 0.35 0.41 0.48 0.53 0.52 0.50 0.48 0.48 0.47 0.49 0.47 0.42 0.34 0.26 0.28 0.33 0.31 0.31 0.28 0.23 0.23 0.35 0.39 0.39 0.39 0.38 0.39 0.41 0.43 0.43 0.43 0.42 0.44 0.46 0.50 0.53 0.55
0.34 0.28 0.38 0.47 0.54 0.49 0.43 0.34 0.37 0.33 0.29 0.32 0.37 0.34 0.35 0.33 0.32 0.34 0.30 0.32 0.27 0.30 0.26 0.24 0.24 0.23 0.27 0.25 0.27 0.25 0.25 0.22 0.23 0.21 0.25 0.29 0.30 0.34 0.38 0.39 0.42 0.39 0.40 0.35 0.37 0.41 0.47 0.37 0.32 0.31 0.34 0.37 0.41 0.46 0.51 0.53 0.51 0.49 0.52 0.54 0.50 0.44 0.48 0.44 0.42 0.43 0.36 0.32 0.29 0.28 0.24 0.26 0.36 0.44 0.46 0.47 0.46 0.46 0.46 0.44 0.44 0.45 0.47 0.48 0.49 0.51 0.53 0.55
0.36 0.32 0.28 0.44 0.49 0.49 0.36 0.25 0.26 0.29 0.31 0.36 0.35 0.34 0.40 0.37 0.36 0.34 0.33 0.34 0.29 0.28 0.26 0.26 0.27 0.30 0.25 0.31 0.29 0.23 0.29 0.18 0.29 0.27 0.27 0.31 0.30 0.43 0.42 0.39 0.42 0.37 0.35 0.36 0.32 0.40 0.29 0.37 0.34 0.26 0.24 0.26 0.30 0.37 0.41 0.50 0.51 0.49 0.48 0.53 0.55 0.54 0.53 0.53 0.51 0.52 0.37 0.35 0.34 0.29 0.22 0.27 0.37 0.46 0.50 0.49 0.48 0.47 0.48 0.49 0.46 0.44 0.46 0.49 0.51 0.53 0.55 0.58
0.37 0.39 0.37 0.38 0.44 0.40 0.30 0.35 0.31 0.29 0.32 0.32 0.33 0.31 0.33 0.35 0.39 0.36 0.33 0.30 0.33 0.30 0.27 0.26 0.28 0.31 0.28 0.33 0.30 0.30 0.32 0.26 0.23 0.32 0.31 0.33 0.33 0.44 0.43 0.40 0.43 0.40 0.43 0.45 0.41 0.44 0.33 0.33 0.30 0.23 0.21 0.18 0.17 0.19 0.25 0.33 0.40 0.47 0.51 0.52 0.55 0.52 0.51 0.48 0.41 0.45 0.37 0.40 0.41 0.34 0.30 0.35 0.41 0.46 0.47 0.48 0.48 0.48 0.50 0.49 0.51 0.49 0.47 0.49 0.51 0.52 0.54 0.57
0.33 0.22 0.30 0.30 0.38 0.36 0.36 0.44 0.38 0.34 0.31 0.31 0.28 0.31 0.33 0.29 0.35 0.39 0.37 0.32 0.33 0.32 0.30 0.30 0.31 0.31 0.28 0.29 0.27 0.27 0.27 0.34 0.27 0.27 0.29 0.28 0.32 0.38 0.41 0.41 0.42 0.46 0.47 0.45 0.42 0.41 0.33 0.36 0.33 0.30 0.28 0.26 0.27 0.31 0.40 0.44 0.42 0.38 0.43 0.47 0.49 0.54 0.55 0.53 0.51 0.44 0.39 0.43 0.40 0.41 0.41 0.39 0.41 0.43 0.46 0.48 0.49 0.48 0.50 0.51 0.51 0.52 0.53 0.53 0.54 0.54 0.54 0.56
0.39 0.27 0.28 0.23 0.33 0.35 0.34 0.38 0.36 0.36 0.30 0.35 0.25 0.31 0.27 0.29 0.30 0.31 0.37 0.27 0.35 0.32 0.32 0.30 0.30 0.25 0.27 0.27 0.26 0.26 0.29 0.28 0.33 0.30 0.28 0.29 0.34 0.36 0.40 0.39 0.41 0.48 0.47 0.44 0.44 0.40 0.34 0.29 0.32 0.33 0.34 0.34 0.36 0.37 0.41 0.42 0.36 0.37 0.38 0.39 0.46 0.47 0.49 0.47 0.44 0.42 0.51 0.45 0.35 0.44 0.48 0.43 0.41 0.45 0.48 0.50 0.51 0.52 0.55 0.56 0.56 0.57 0.57 0.55 0.56 0.57 0.56 0.57
0.25 0.33 0.38 0.41 0.27 0.25 0.28 0.30 0.37 0.34 0.36 0.35 0.29 0.33 0.28 0.27 0.28 0.23 0.32 0.34 0.34 0.37 0.27 0.32 0.32 0.33 0.30 0.28 0.29 0.22 0.26 0.26 0.27 0.24 0.31 0.32 0.32 0.33 0.31 0.36 0.36 0.45 0.43 0.42 0.45 0.36 0.33 0.28 0.30 0.32 0.32 0.36 0.40 0.40 0.41 0.40 0.39 0.37 0.36 0.37 0.37 0.42 0.44 0.42 0.42 0.47 0.50 0.44 0.38 0.44 0.49 0.45 0.46 0.49 0.53 0.55 0.56 0.57 0.60 0.60 0.62 0.64 0.62 0.60 0.57 0.56 0.56 0.56
0.38 0.38 0.39 0.48 0.31 0.35 0.34 0.36 0.38 0.36 0.33 0.33 0.31 0.30 0.26 0.25 0.24 0.29 0.27 0.27 0.29 0.28 0.31 0.22 0.27 0.30 0.31 0.33 0.30 0.24 0.26 0.20 0.20 0.29 0.27 0.27 0.28 0.27 0.25 0.29 0.35 0.43 0.42 0.39 0.38 0.36 0.34 0.29 0.30 0.33 0.32 0.34 0.36 0.36 0.37 0.34 0.34 0.34 0.35 0.35 0.36 0.38 0.40 0.42 0.43 0.46 0.46 0.45 0.49 0.50 0.50 0.49 0.51 0.53 0.57 0.59 0.60 0.61 0.66 0.68 0.66 0.64 0.62 0.62 0.60 0.58 0.57 0.58
0.29 0.31 0.28 0.41 0.39 0.35 0.35 0.34 0.33 0.31 0.27 0.32 0.26 0.27 0.28 0.27 0.25 0.29 0.32 0.28 0.23 0.24 0.32 0.26 0.28 0.30 0.31 0.30 0.30 0.25 0.27 0.27 0.26 0.22 0.29 0.29 0.27 0.29 0.28 0.27 0.27 0.36 0.37 0.30 0.31 0.34 0.33 0.26 0.32 0.31 0.27 0.25 0.24 0.25 0.26 0.27 0.28 0.27 0.30 0.33 0.35 0.35 0.36 0.40 0.41 0.43 0.45 0.44 0.45 0.46 0.47 0.48 0.54 0.62 0.61 0.63 0.61 0.61 0.61 0.59 0.63 0.67 0.66 0.65 0.64 0.62 0.62 0.61
0.42 0.49 0.47 0.35 0.28 0.30 0.31 0.31 0.28 0.27 0.24 0.26 0.24 0.26 0.27 0.27 0.26 0.30 0.29 0.33 0.28 0.26 0.30 0.26 0.29 0.29 0.31 0.30 0.30 0.29 0.33 0.33 0.33 0.33 0.35 0.35 0.26 0.35 0.29 0.27 0.35 0.26 0.29 0.29 0.31 0.30 0.31 0.24 0.28 0.25 0.20 0.19 0.21 0.21 0.22 0.24 0.26 0.26 0.27 0.29 0.30 0.30 0.28 0.31 0.32 0.35 0.36 0.36 0.39 0.41 0.40 0.41 0.50 0.61 0.63 0.62 0.61 0.61 0.60 0.58 0.58 0.61 0.66 0.67 0.65 0.66 0.66 0.65
0.47 0.50 0.49 0.40 0.26 0.32 0.28 0.32 0.30 0.26 0.19 0.24 0.24 0.24 0.24 0.26 0.29 0.30 0.24 0.32 0.33 0.35 0.33 0.33 0.34 0.31 0.29 0.29 0.28 0.32 0.40 0.41 0.40 0.42 0.42 0.42 0.41 0.38 0.37 0.35 0.34 0.29 0.28 0.29 0.34 0.29 0.29 0.25 0.21 0.22 0.19 0.16 0.16 0.18 0.20 0.23 0.23 0.19 0.19 0.19 0.21 0.24 0.27 0.28 0.29 0.32 0.33 0.34 0.33 0.33 0.33 0.40 0.43 0.49 0.51 0.55 0.58 0.61 0.61 0.60 0.59 0.58 0.65 0.70 0.69 0.67 0.67 0.68
Wind_Speed
14 14 14 15 15 15 15 15 14 14 14 14 14 14 14 14 14 14 13 13 13 13 13 12 12 12 12 12 12 12 11 11 9 8 7 6 5 4 5 6 6 8 9 9 9 9 10 10 10 10 8 7 6 6 6 5 4 3 3 3 3 3 3 3 4 4 3 3 3 4 4 2 3 4 4 6 6 6 6 7 7 7 7 8 8 7 6 6
14 14 15 15 15 15 15 14 14 14 14 14 14 14 14 14 14 13 13 13 13 13 13 13 12 12 12 12 12 12 11 10 9 8 6 6 5 4 4 5 6 7 8 9 9 9 10 9 8 9 8 6 5 5 5 5 4 4 3 2 3 4 3 4 4 4 3 3 3 3 4 4 3 3 3 5 6 6 6 6 6 7 7 6 7 6 6 6
14 15 15 15 15 15 15 15 14 14 14 14 14 14 14 13 13 13 13 13 13 13 13 13 12 11 11 11 12 12 11 10 9 7 6 6 4 3 4 5 6 7 8 8 8 8 8 8 7 8 7 5 5 4 4 4 4 4 4 2 3 4 3 3 4 4 4 3 2 3 4 4 4 3 3 4 4 5 6 6 5 7 7 6 6 6 6 6
15 15 15 15 15 15 15 15 15 14 14 14 14 14 13 13 13 13 13 13 13 13 13 13 12 11 10 11 11 11 11 10 7 6 6 6 5 4 4 5 6 6 7 7 7 7 8 8 7 7 6 5 4 3 3 3 3 3 4 3 3 4 2 3 4 4 4 3 3 2 2 4 4 3 3 2 3 5 6 6 6 7 7 6 6 6 6 6
15 15 15 15 15 15 15 15 15 15 14 14 14 13 13 13 13 13 13 13 13 13 13 13 13 12 10 10 10 10 10 9 7 6 6 5 5 5 5 5 5 5 6 6 6 6 7 7 7 6 6 4 4 3 2 2 2 2 2 3 3 3 2 3 3 3 4 3 3 2 2 3 3 3 3 1 3 4 5 6 6 6 5 5 6 6 6 6
15 15 15 15 15 16 15 15 15 15 15 15 14 14 13 13 13 13 13 13 13 13 13 13 12 11 10 9 9 9 8 7 6 6 5 4 4 4 5 5 5 5 5 5 5 5 6 6 6 5 5 4 3 2 2 1 2 1 0 1 2 3 3 3 2 3 3 4 4 3 4 3 2 3 3 2 4 4 5 5 5 4 4 4 5 5 6 6
16 16 16 16 16 16 16 16 16 15 15 15 14 14 14 13 13 13 13 13 13 13 13 13 12 11 10 8 8 8 7 6 7 6 4 3 3 3 4 4 4 3 3 3 4 5 5 6 5 4 4 4 3 2 2 2 1 1 1 1 1 3 4 5 4 5 4 5 6 5 4 3 4 3 2 4 6 5 6 5 3 2 2 3 4 5 5 5
16 16 16 16 16 16 16 16 16 16 15 15 15 14 14 14 13 13 13 13 13 13 13 13 12 11 9 8 7 8 8 7 6 5 4 3 2 2 2 2 2 2 2 2 2 4 5 4 3 3 4 3 2 2 2 3 2 1 1 2 1 2 4 5 5 5 5 5 5 4 4 5 5 3 2 4 6 5 5 4 3 2 1 2 3 4 5 5
17 17 17 17 17 17 17 17 16 16 16 15 15 15 15 14 14 14 13 13 13 13 13 12 11 10 9 8 7 8 7 5 5 4 3 2 1 1 1 1 1 1 1 1 1 3 4 3 3 3 3 2 2 2 2 2 1 1 1 2 1 2 4 4 4 4 5 5 4 5 5 4 4 3 4 5 5 4 3 3 3 2 2 2 3 4 4 4
17 17 17 17 17 17 17 17 17 17 16 16 16 16 15 15 14 14 14 13 13 13 12 12 10 10 9 8 7 6 6 5 5 4 2 2 1 1 1 1 2 1 1 1 1 2 3 3 4 4 3 2 2 2 1 1 1 1 2 3 3 4 5 4 4 4 4 4 4 5 5 4 3 4 4 4 3 2 2 2 3 3 2 2 3 3 4 4
17 17 17 18 18 18 18 18 17 17 17 17 17 16 16 15 15 14 14 13 13 12 12 11 10 9 9 8 6 5 6 5 5 3 2 2 2 2 2 2 3 3 2 2 2 3 3 3 4 4 4 3 2 3 3 2 2 3 4 4 5 5 6 5 5 4 3 3 5 4 3 3 3 4 4 3 2 2 1 2 3 3 3 3 3 3 4 4
17 18 18 18 18 18 18 18 18 18 18 18 18 17 17 16 15 15 14 14 13 12 11 10 9 9 9 8 7 6 6 5 4 3 3 3 3 3 3 4 4 4 3 3 4 5 4 5 5 4 5 4 4 4 3 3 3 4 2 2 5 5 5 5 4 4 3 2 3 3 3 5 4 5 3 2 3 2 2 3 4 4 4 4 4 4 4 4
18 18 19 19 19 19 19 19 19 19 19 18 18 18 17 17 16 15 14 14 13 12 10 9 9 9 9 9 9 7 6 5 4 4 4 4 4 4 4 5 5 5 5 5 6 6 6 6 5 6 7 5 5 4 4 3 3 4 2 1 4 5 4 4 3 3 3 4 4 3 5 6 6 6 3 3 4 3 3 4 5 5 5 5 5 5 5 4
19 19 19 20 20 20 20 20 20 19 19 19 19 18 18 17 16 15 14 13 12 11 10 9 9 9 8 9 10 8 7 6 5 5 5 5 5 6 6 6 6 7 7 7 8 7 7 7 7 7 8 6 6 6 5 5 4 4 4 3 3 4 4 5 4 2 3 5 5 4 7 7 6 5 4 4 5 5 5 5 6 6 5 5 5 5 5 5
20 20 20 20 21 21 21 20 20 20 20 20 19 19 18 16 15 14 13 12 11 10 10 10 10 9 9 11 11 9 7 7 7 7 6 5 6 6 6 6 7 8 8 9 9 9 8 8 8 8 8 7 6 6 6 6 5 4 5 5 5 4 5 6 4 1 3 5 5 5 7 8 8 5 4 5 6 6 6 6 7 7 6 6 5 6 6 6
20 20 21 21 21 21 21 21 21 21 21 20 20 19 17 16 15 13 12 11 11 10 10 10 10 9 10 10 9 8 8 8 8 7 6 6 7 7 7 6 7 8 8 9 9 10 10 9 8 8 8 7 5 5 6 7 7 5 4 5 6 5 5 6 4 3 3 3 5 6 7 8 8 6 5 6 7 7 6 6 7 8 7 6 6 6 6 6
21 21 21 21 22 22 22 22 22 21 21 21 20 19 17 15 14 12 12 12 12 12 12 12 11 11 11 10 9 9 9 9 9 7 7 8 8 8 8 7 8 8 8 9 9 10 10 9 8 8 7 6 5 4 6 7 7 7 5 5 6 6 6 6 5 5 3 3 5 7 8 8 8 6 4 6 7 7 6 6 7 8 8 7 7 7 6 6
22 22 22 22 22 22 22 22 22 21 20 21 20 19 17 15 14 14 14 14 14 13 13 12 11 11 11 9 8 9 9 9 9 9 9 8 9 9 9 8 8 8 8 9 9 8 8 8 8 8 8 7 6 4 6 7 6 6 6 6 7 7 7 7 7 6 5 6 7 7 9 10 9 6 4 6 6 7 7 7 7 8 8 8 7 7 7 7
22 22 23 23 23 22 22 22 22 21 21 21 19 18 16 16 16 15 15 16 15 13 13 13 11 11 12 11 11 11 11 10 10 11 10 9 9 9 9 10 9 9 8 8 8 8 8 8 8 9 9 8 7 6 7 8 7 7 8 7 8 9 8 8 8 7 5 7 8 8 9 11 10 7 4 5 6 7 8 7 7 8 8 8 8 8 7 7
23 23 23 23 23 23 23 23 22 21 21 19 18 17 16 16 16 15 16 18 16 14 15 16 15 15 16 16 15 15 14 14 14 13 12 11 10 9 9 10 10 10 9 8 9 9 8 10 11 11 10 9 9 9 9 8 7 8 8 9 10 10 10 10 9 8 6 7 9 8 9 11 11 8 5 5 6 7 8 8 8 9 9 9 9 9 8 8
23 23 24 24 24 23 23 23 22 22 20 18 17 16 15 16 16 16 18 18 17 16 17 18 17 17 18 17 16 14 13 14 14 14 13 13 11 10 10 10 9 11 10 9 10 10 9 11 12 11 11 10 10 9 9 9 8 9 9 10 11 10 12 12 10 10 7 7 9 7 8 11 11 8 6 5 6 7 8 9 9 10 10 9 9 10 9 8
23 24 24 24 24 24 24 24 23 21 20 17 16 15 15 16 17 17 16 16 18 18 18 18 17 18 19 19 18 15 14 14 15 15 14 12 12 12 11 10 10 11 10 9 11 12 12 13 14 12 10 10 10 9 10 10 10 10 10 10 12 11 12 13 11 10 8 8 10 8 7 11 10 8 7 7 8 8 9 10 11 11 11 10 10 11 10 9
24 24 24 24 25 25 25 24 23 21 19 18 17 15 16 19 19 18 16 16 16 16 17 18 16 17 18 18 18 16 15 15 16 17 16 13 13 14 12 11 11 11 10 10 11 12 13 13 12 10 10 10 11 10 10 10 10 10 10 10 13 11 11 12 11 10 10 10 10 9 9 10 9 8 8 9 10 9 9 10 11 10 11 12 12 11 10 9
25 24 24 25 25 26 26 24 21 20 20 19 18 17 18 20 20 19 17 17 16 15 17 17 16 16 16 16 15 15 16 16 16 17 17 15 14 13 13 12 12 12 12 12 12 13 15 14 11 9 9 10 11 11 10 11 11 11 11 11 13 13 12 12 12 12 13 12 10 8 10 10 9 9 10 9 9 10 9 9 10 10 10 11 11 11 11 11
25 25 25 26 26 27 27 22 20 21 21 19 18 19 20 20 20 19 18 18 17 15 16 16 15 14 14 13 12 13 14 15 16 16 16 16 14 13 13 13 12 13 14 13 12 14 16 15 12 12 12 11 12 13 11 11 12 12 12 12 13 14 14 14 14 13 13 13 11 8 9 10 9 9 10 9 9 10 9 8 10 11 10 10 11 12 12 11
26 26 26 26 26 27 24 20 20 22 20 18 19 20 20 20 21 19 17 17 17 16 14 14 13 13 13 12 11 10 10 12 15 15 14 15 14 12 12 13 13 14 14 14 14 15 15 14 13 14 14 13 13 14 13 11 11 12 12 12 12 13 14 14 14 12 13 13 12 9 9 11 11 10 10 9 10 11 9 9 11 12 11 11 12 13 13 12
26 26 26 26 25 25 21 19 21 21 19 19 20 21 21 21 20 18 16 16 16 14 12 12 12 12 13 12 11 10 11 13 13 12 13 13 14 13 14 14 14 15 14 14 15 15 14 13 13 14 14 14 14 14 14 12 11 13 13 12 13 14 14 15 14 13 14 15 14 12 11 13 13 13 11 10 11 12 11 11 12 12 13 13 13 14 14 14
26 26 26 25 25 24 21 21 22 20 19 21 22 21 21 20 19 17 15 14 15 13 12 13 13 13 14 14 12 12 14 14 12 12 13 14 14 14 15 16 15 16 15 15 17 16 14 14 15 15 15 15 15 15 15 13 13 16 15 14 15 15 15 15 14 15 15 15 15 15 13 12 13 13 11 10 11 13 13 13 13 13 14 14 14 15 15 15
27 26 26 26 26 24 22 22 22 21 21 22 22 22 21 19 17 16 14 15 16 14 13 14 14 15 16 14 14 15 15 15 13 14 14 14 16 15 16 16 15 16 18 18 19 18 16 17 17 16 16 16 17 17 16 15 16 17 16 15 15 15 15 14 14 15 15 14 15 15 13 12 14 14 12 10 11 13 13 12 12 14 15 16 15 15 16 16
28 27 27 27 26 24 24 23 22 22 23 23 23 22 20 18 16 15 15 16 17 16 15 16 16 18 18 16 16 16 15 16 16 15 14 15 17 16 16 16 16 17 19 20 21 21 19 19 18 17 18 18 18 18 18 18 19 18 17 18 17 16 16 15 15 14 14 15 15 16 15 13 13 13 11 10 11 11 11 10 11 12 14 16 16 16 16 16
29 28 28 27 26 26 25 24 22 23 24 24 23 21 18 17 16 14 16 17 18 18 17 16 16 17 16 15 17 17 16 17 17 16 16 16 16 17 17 17 17 17 19 21 22 22 21 20 20 20 20 19 18 20 19 18 19 18 18 18 19 19 17 16 16 14 14 15 15 15 15 13 14 12 10 11 11 11 10 10 11 11 13 15 16 16 17 17
29 30 30 28 27 26 26 25 25 25 25 23 22 19 17 17 17 17 18 19 18 17 16 16 16 16 16 15 16 17 16 17 17 16 17 17 16 17 18 18 18 18 20 21 21 21 22 21 20 20 20 19 19 21 20 19 18 18 19 18 18 18 17 16 16 15 15 16 15 14 14 14 16 16 13 13 14 13 12 12 12 12 13 15 16 17 17 17
30 30 30 29 28 27 26 26 26 25 24 22 20 18 16 17 19 19 19 18 17 17 17 17 17 17 17 17 17 18 17 17 17 16 17 17 17 18 19 19 18 19 21 21 21 22 22 22 20 19 20 19 19 20 21 21 20 20 19 20 19 17 16 18 17 15 16 17 16 15 15 15 16 17 16 16 16 14 14 14 15 14 14 15 15 16 16 17
31 31 29 29 28 27 27 26 25 23 22 21 19 18 17 18 20 20 20 20 20 20 19 20 21 20 19 19 19 19 17 18 17 17 17 17 17 18 19 19 19 20 21 21 22 22 22 23 20 18 18 18 17 19 20 19 19 20 19 19 20 19 18 19 18 17 17 17 16 15 15 14 14 15 15 16 16 16 15 16 16 16 17 16 15 16 16 17
31 30 29 28 27 26 26 25 24 22 21 19 18 18 18 20 20 20 20 21 21 21 21 21 21 20 20 20 20 18 17 19 19 17 18 17 18 19 19 20 20 19 20 22 23 22 23 25 22 19 19 18 18 19 19 17 18 20 18 19 22 21 21 22 20 20 19 18 18 17 17 17 16 17 17 16 18 19 18 16 15 16 17 16 16 16 17 18
30 29 27 26 25 25 24 23 22 21 19 18 18 19 20 21 20 20 20 21 20 20 21 20 19 19 19 19 18 18 18 19 19 18 19 18 19 19 19 20 20 18 19 22 23 22 23 26 24 21 21 20 20 20 19 19 18 18 18 19 21 20 20 22 22 20 19 20 20 18 19 20 18 19 18 16 18 18 17 17 16 16 16 16 16 17 18 19
28 27 26 24 24 24 23 21 20 20 19 18 19 21 21 21 21 20 21 21 21 20 19 20 19 19 19 19 18 18 18 19 19 19 20 20 19 19 20 20 20 19 20 22 24 23 25 28 26 24 25 23 21 21 22 22 20 19 20 20 19 18 18 20 20 19 18 21 22 19 20 20 18 18 17 16 18 18 17 17 16 15 15 16 17 18 18 19
27 26 24 23 23 22 21 20 19 19 19 19 21 22 21 21 21 21 21 21 21 21 20 20 21 20 20 20 20 21 20 20 21 20 21 21 20 19 20 22 21 20 21 22 23 23 24 27 27 25 25 24 22 21 23 23 22 21 22 20 18 19 19 18 19 19 19 21 21 20 21 21 19 19 17 17 18 17 17 17 16 16 17 17 18 18 18 18
26 25 23 22 22 21 20 19 19 19 19 20 21 22 21 21 22 21 21 21 21 21 21 21 21 21 20 20 21 22 21 21 21 21 21 21 21 20 20 22 23 23 25 23 23 24 24 25 27 24 23 23 22 21 22 22 21 21 21 21 20 20 20 20 20 19 19 20 21 21 20 20 20 19 18 18 18 16 16 16 16 18 18 19 19 18 18 18
24 23 22 22 22 20 19 19 19 19 20 21 21 21 21 22 22 22 22 21 21 21 21 22 21 22 22 22 22 23 22 22 22 21 21 21 22 22 22 24 25 26 27 24 23 25 24 24 27 26 24 23 22 21 20 20 20 20 20 21 21 20 20 21 22 21 21 21 21 21 22 21 20 18 17 19 19 18 17 16 16 18 19 19 19 18 19 19
23 22 22 22 21 21 20 20 20 19 20 21 21 22 22 22 22 23 22 22 22 22 22 22 22 23 24 23 24 24 23 23 23 22 23 23 23 23 24 25 26 27 26 24 24 25 24 24 27 28 26 25 25 24 22 23 23 21 21 20 20 20 19 20 22 22 22 22 21 21 23 23 21 19 18 19 19 18 17 17 17 18 19 20 19 18 18 19
23 22 23 22 22 21 20 20 21 20 20 21 21 22 22 22 22 23 23 23 23 23 23 23 24 24 24 24 24 24 23 24 24 23 23 23 23 25 26 26 27 26 25 25 26 26 25 25 27 29 28 28 29 28 25 25 25 22 21 22 22 21 19 20 22 23 23 23 23 22 23 24 21 19 19 19 18 17 18 18 18 18 19 19 19 19 18 18
23 24 25 24 23 22 21 22 22 22 22 22 23 23 23 23 23 23 24 23 23 24 24 24 24 24 24 25 24 24 24 24 24 24 24 24 25 26 27 27 27 27 25 26 28 28 27 27 28 30 30 30 31 28 26 25 23 22 22 22 21 22 21 22 23 24 24 24 23 23 23 23 20 17 17 17 17 18 19 19 19 19 18 18 19 20 19 19
24 25 26 25 24 22 22 23 23 23 24 23 23 24 24 24 24 24 24 24 24 24 24 24 25 25 25 25 24 25 25 25 24 25 24 25 26 26 27 28 28 28 27 28 28 29 29 28 28 29 30 30 29 27 25 25 23 23 24 23 21 22 23 24 23 23 24 24 23 23 24 24 21 18 17 17 16 17 18 19 19 21 20 19 19 20 20 20
25 25 25 25 24 23 23 24 23 23 24 24 24 25 25 25 25 25 25 25 25 24 24 25 25 25 25 25 25 26 26 26 26 27 26 27 28 28 29 30 30 29 29 29 29 29 29 29 29 28 29 29 29 28 27 28 27 26 26 25 24 24 24 24 24 23 24 25 25 25 27 27 25 23 21 19 18 18 18 18 19 21 21 21 20 20 21 21
25 24 25 25 24 23 24 24 23 24 24 24 25 26 25 26 26 26 25 26 26 25 25 26 26 26 26 26 26 27 28 27 28 28 29 30 31 31 32 33 33 32 31 29 30 30 29 30 30 30 30 32 32 31 30 29 29 30 30 29 26 25 25 24 25 26 26 27 28 28 27 28 28 26 23 21 19 18 18 18 19 20 20 21 22 21 21 22
25 25 25 25 25 25 24 24 24 25 26 25 26 26 26 26 26 26 25 26 26 25 26 26 26 26 27 27 27 29 29 29 29 30 31 32 33 34 35 34 34 33 31 30 31 30 30 31 32 32 33 34 33 33 32 31 32 33 33 33 30 28 27 26 27 28 27 27 30 30 28 29 31 28 25 23 22 20 18 18 19 19 19 21 22 22 22 22
26 26 26 25 26 26 25 26 26 26 27 26 26 26 26 26 26 26 26 26 26 26 26 26 26 26 28 28 28 29 30 30 31 32 33 33 34 34 35 35 33 32 31 31 32 31 31 34 35 34 35 35 34 34 34 34 34 35 35 36 35 33 31 31 31 30 28 29 32 32 32 33 33 30 27 27 26 23 20 20 19 19 19 20 22 23 24 24
27 27 27 27 27 27 27 28 28 27 27 27 27 27 27 27 27 27 27 27 27 27 27 27 28 28 29 29 28 29 30 31 32 33 33 33 34 34 34 34 33 32 31 31 32 32 33 35 35 34 35 36 36 36 36 36 37 38 38 38 38 37 35 34 34 33 31 33 34 34 35 36 34 30 29 29 28 26 24 22 20 19 18 19 20 23 25 25
27 27 28 28 28 28 28 28 28 27 28 28 28 28 27 27 28 28 28 26 27 28 27 28 30 30 31 30 29 30 32 31 32 33 32 32 33 32 32 32 31 31 30 31 31 32 32 33 33 33 34 36 36 37 38 38 38 39 40 39 39 39 38 37 37 35 33 34 35 34 35 36 33 30 30 30 30 29 27 24 23 21 20 19 19 21 24 25
29 29 29 29 29 29 28 28 26 26 28 28 28 28 28 28 28 28 28 28 28 28 27 28 30 31 30 31 31 32 33 32 33 34 32 31 31 31 30 29 29 29 30 29 29 29 29 30 31 30 32 34 35 35 36 36 36 38 40 40 40 40 39 38 37 36 35 35 35 34 35 36 33 31 32 33 31 31 30 28 27 26 24 21 20 21 22 24
29 29 29 29 29 29 28 27 26 27 28 28 28 29 28 28 28 28 29 29 28 27 27 29 30 30 30 31 31 32 33 33 34 34 33 32 32 31 31 30 29 29 28 27 28 28 27 28 28 27 28 31 32 32 32 31 31 35 38 39 40 40 38 38 38 38 38 37 36 37 37 36 33 32 34 34 33 32 33 32 30 29 28 26 24 24 23 24
Wind_Direction
356 355 354 354 354 355 355 355 355 356 356 356 357 357 358 359 359 358 357 357 357 356 355 354 355 355 357 359 1 1 359 358 358 360 0 5 18 35 46 52 59 59 60 61 65 73 74 74 69 64 67 73 76 80 82 87 102 103 115 148 178 163 161 166 173 184 186 232 247 242 228 217 264 265 281 296 298 296 293 285 274 274 272 276 282 279 271 252
351 351 350 350 350 350 350 350 351 351 351 351 352 352 353 355 355 356 355 356 356 355 353 352 353 353 356 359 1 1 360 358 357 356 359 9 27 51 62 67 71 68 68 68 72 78 76 70 65 62 62 64 64 72 75 79 90 93 111 143 172 163 159 157 162 180 190 229 239 234 231 232 253 254 281 299 302 307 299 286 279 278 272 271 272 266 261 249
346 346 346 346 347 347 346 346 346 346 347 347 347 347 348 349 350 352 353 353 354 354 352 350 351 351 353 356 358 359 359 0 3 6 12 21 36 59 77 83 82 77 74 76 80 79 76 70 61 57 56 57 60 68 77 84 90 93 110 132 165 158 159 180 178 196 220 237 227 233 241 256 269 259 282 299 311 316 297 279 273 272 266 260 261 258 254 247
343 343 343 343 343 343 343 342 342 342 342 342 343 343 343 343 345 347 348 349 350 352 351 349 348 349 351 353 356 358 0 7 12 15 18 26 45 68 94 97 90 84 79 81 82 77 73 65 52 49 54 56 51 57 77 95 98 94 111 139 162 140 144 213 204 219 237 236 226 227 245 275 276 268 285 315 341 323 295 273 260 262 264 255 254 252 248 245
341 341 341 341 340 339 339 339 338 338 338 338 338 338 338 339 339 340 343 345 345 347 348 347 346 346 348 351 354 356 5 17 18 12 14 30 54 73 98 102 97 89 82 82 77 72 66 58 48 45 53 59 51 53 66 99 102 94 132 182 189 147 162 225 210 223 236 227 226 216 236 268 265 272 278 293 333 320 307 287 265 263 270 259 248 244 243 242
339 339 339 338 337 337 336 336 335 335 335 334 334 333 333 333 334 335 337 339 341 342 343 345 346 345 346 348 350 355 10 18 8 8 17 41 66 79 97 106 105 89 79 79 68 63 54 47 45 44 53 57 60 61 41 53 89 67 219 181 210 184 198 236 223 229 229 213 221 224 243 249 232 273 274 254 286 305 321 317 287 274 274 259 245 239 242 238
336 336 336 335 334 333 333 334 333 333 332 331 330 329 329 329 330 330 331 333 334 336 338 340 343 344 343 343 346 355 4 356 352 6 22 45 73 90 100 110 109 85 73 75 61 51 39 34 36 47 56 46 58 65 19 21 53 242 296 356 246 207 216 244 247 244 232 223 235 232 241 237 222 267 295 263 274 295 319 333 328 303 273 248 243 241 243 236
332 333 333 333 331 331 331 331 331 330 329 329 327 326 326 326 326 326 326 327 327 331 332 334 340 343 342 341 344 347 343 336 346 3 19 43 74 109 109 111 111 83 68 63 50 44 27 21 21 43 50 35 51 41 6 14 29 144 246 289 246 211 234 256 257 250 242 238 243 227 231 239 229 257 306 275 279 297 315 336 353 336 280 249 241 240 241 234
329 329 330 329 329 329 329 329 329 328 327 326 325 324 323 323 323 323 323 322 323 325 327 329 333 338 340 339 344 341 331 332 346 353 7 22 47 137 141 143 153 114 58 11 17 33 10 3 6 24 28 6 15 4 15 28 10 152 209 260 234 258 275 281 272 255 248 243 231 219 241 259 253 273 298 289 286 302 319 334 343 334 286 258 240 235 235 233
326 326 326 326 326 326 327 327 327 326 324 323 322 322 321 320 319 319 319 320 320 320 322 325 327 333 335 335 344 338 325 334 341 341 350 349 333 195 217 214 203 220 329 320 333 3 344 341 353 0 350 337 341 323 351 37 280 245 275 270 252 274 292 294 289 275 256 244 222 217 249 279 282 280 290 299 297 306 329 330 324 317 290 264 239 234 233 233
323 323 323 323 324 323 324 324 324 324 322 321 320 319 319 318 316 316 317 317 318 318 319 321 324 326 328 331 334 323 318 330 334 334 332 318 285 243 235 232 231 243 266 284 280 294 313 320 339 350 333 323 326 310 304 288 291 309 311 291 272 286 294 283 285 281 262 253 231 216 263 287 285 277 277 289 286 278 280 293 291 286 285 267 243 237 235 236
320 321 320 321 321 320 321 321 320 320 320 320 319 318 317 316 314 313 314 316 316 316 316 319 321 321 326 325 312 306 314 322 324 324 313 297 282 266 252 246 247 250 256 271 281 287 296 308 324 326 311 309 312 311 303 301 312 310 320 300 288 311 308 286 280 263 249 270 237 204 283 279 260 264 274 271 258 261 260 267 271 270 274 263 246 240 239 240
318 318 318 318 318 318 318 318 317 317 318 318 317 316 314 313 312 311 312 315 315 316 315 315 315 317 323 316 307 308 305 303 308 306 300 291 279 273 267 256 252 255 260 267 282 291 291 297 308 303 301 302 293 290 295 309 314 302 320 318 299 324 317 296 298 267 262 271 233 206 269 273 261 257 267 263 242 237 248 255 260 264 268 258 245 241 241 241
317 317 317 317 317 316 316 316 315 314 315 315 315 313 311 310 310 309 310 312 312 313 312 311 312 316 318 306 305 308 296 289 291 286 289 287 277 273 269 262 258 259 264 267 278 290 290 293 300 301 299 292 285 288 295 308 314 305 313 318 309 318 298 297 315 297 283 274 247 241 264 273 276 262 254 257 240 227 234 246 255 259 262 257 244 240 244 244
316 316 317 316 316 316 315 315 313 313 313 313 312 310 308 307 307 308 310 311 311 309 308 308 308 312 313 303 302 303 293 285 279 274 277 279 277 275 269 263 264 265 266 268 273 282 289 292 295 294 290 291 294 294 294 302 314 316 307 301 308 311 290 297 312 285 287 292 273 258 264 276 286 275 246 243 238 231 233 240 249 255 257 255 246 241 246 249
314 314 315 315 316 316 315 314 313 312 311 310 309 308 305 304 304 305 307 310 308 304 305 306 304 306 308 304 304 301 291 283 280 277 272 270 270 271 273 270 270 273 272 272 274 279 285 289 290 286 283 290 293 289 296 303 307 314 308 295 302 314 306 303 312 298 293 324 308 277 274 282 292 294 260 231 226 227 233 242 244 250 253 250 246 244 247 250
311 312 312 313 314 315 314 314 313 312 310 309 307 305 303 301 300 301 304 307 304 300 302 302 299 300 298 295 297 295 290 283 279 280 277 272 267 268 276 276 276 280 280 279 277 277 281 284 286 287 288 290 281 281 297 298 297 305 311 301 296 304 306 301 305 313 318 326 306 286 281 278 287 303 272 232 226 223 229 239 241 247 252 250 248 248 249 249
309 310 310 311 312 312 313 312 312 311 310 308 306 302 300 296 295 296 299 302 301 299 299 298 297 301 296 289 288 292 296 290 280 279 280 279 273 270 273 272 275 285 289 288 282 278 280 284 286 286 290 287 276 271 274 276 282 291 298 299 295 293 292 290 293 307 316 305 295 285 282 276 278 294 270 240 235 231 236 240 244 249 251 252 251 249 249 249
308 309 309 309 310 310 311 310 310 309 308 307 304 300 298 296 295 293 296 300 299 296 295 293 291 293 289 283 283 285 290 289 282 277 277 279 276 272 272 271 274 281 286 287 285 284 280 285 287 280 279 273 262 254 254 263 269 276 284 285 286 288 284 283 283 289 298 293 288 278 276 272 267 271 264 248 241 244 252 253 254 255 253 254 254 251 247 247
308 308 308 308 308 309 310 310 308 308 308 306 303 300 299 299 298 294 298 300 294 289 290 288 285 284 282 280 280 281 282 281 277 275 274 274 272 270 272 272 275 277 276 273 277 284 281 279 278 272 269 262 256 256 260 271 273 276 285 282 283 285 282 281 282 286 288 284 284 277 272 269 263 265 264 247 246 253 256 257 258 256 253 251 250 251 245 245
306 307 307 307 306 307 308 308 307 307 307 304 304 302 298 299 298 296 301 299 290 288 288 287 284 281 280 279 278 279 281 278 275 274 271 269 265 266 270 271 274 277 274 270 273 283 284 277 273 268 266 262 259 258 262 271 274 278 283 286 288 283 279 280 279 286 287 280 288 291 281 273 265 268 264 242 246 252 246 246 250 250 249 247 246 247 243 245
305 306 306 306 305 305 306 306 304 305 304 301 303 301 297 299 297 295 298 295 290 288 287 286 283 280 281 280 277 274 272 273 274 272 267 265 262 262 268 269 268 274 279 278 277 282 283 278 273 267 261 259 261 259 258 264 269 276 283 289 289 284 286 283 277 289 291 278 288 292 283 275 269 268 262 247 250 255 247 241 243 244 245 244 242 242 241 245
305 306 305 305 305 304 305 304 301 301 300 297 299 298 297 300 298 296 295 292 291 290 288 288 284 281 283 282 277 269 264 266 270 269 262 259 262 260 261 265 265 271 277 272 270 275 278 278 276 267 254 254 261 259 257 267 272 272 278 287 286 284 290 283 277 293 293 283 288 287 283 284 281 277 265 253 255 266 263 250 248 246 242 241 240 241 240 242
304 305 304 305 305 304 305 301 296 300 298 293 292 295 297 299 298 296 293 290 290 290 290 290 290 285 283 283 276 265 265 265 267 270 262 253 258 262 260 261 263 267 269 265 263 270 274 274 276 275 260 251 260 262 259 267 274 272 271 278 282 281 278 273 278 293 295 291 290 289 290 287 281 275 269 265 264 270 270 258 254 249 242 242 241 240 239 238
302 302 303 304 304 304 303 296 294 300 298 289 288 293 297 298 297 295 293 293 291 290 291 291 292 289 286 287 279 268 270 270 267 270 263 250 250 261 264 261 261 264 265 266 268 272 275 272 270 271 266 256 259 264 259 260 272 279 271 266 272 280 279 275 282 292 295 291 286 282 283 283 283 276 272 276 270 265 266 261 256 251 244 242 238 236 235 234
300 300 301 302 302 304 301 292 293 300 296 288 289 294 296 296 296 293 293 296 294 292 292 290 289 288 289 289 283 277 279 279 275 269 262 253 249 257 265 264 266 267 265 269 272 274 276 274 265 262 262 260 260 263 260 256 269 278 271 265 272 282 283 280 281 282 281 280 282 280 271 275 284 278 273 275 267 265 268 265 260 255 248 244 239 234 232 232
300 300 300 300 302 303 298 291 295 298 292 289 293 295 294 294 294 291 292 296 295 292 291 287 284 287 291 285 279 281 282 285 286 274 262 257 255 260 265 265 268 269 267 270 273 271 273 275 269 262 261 260 260 263 259 255 264 271 270 277 284 284 282 281 278 275 275 277 283 284 274 272 275 271 274 275 266 272 274 266 262 256 248 245 242 237 232 230
299 299 300 299 300 299 293 291 295 294 289 290 294 293 291 291 289 287 290 290 290 292 288 284 283 288 295 287 275 278 281 284 287 281 270 260 259 265 267 264 263 266 267 266 268 270 270 270 266 261 261 261 260 260 257 256 265 268 271 281 284 281 280 281 277 274 279 280 279 280 275 271 270 269 278 275 266 273 275 267 261 252 245 241 240 239 234 230
297 297 297 297 297 293 289 291 291 288 287 291 293 290 288 286 283 284 284 282 289 293 285 284 284 288 295 290 278 279 281 280 277 276 274 265 263 268 269 265 263 267 268 265 267 270 270 268 265 261 262 262 260 259 256 257 264 269 274 280 283 283 283 282 277 273 278 276 270 270 268 268 271 271 271 269 266 271 273 271 262 250 244 240 237 238 235 232
295 295 295 295 294 290 288 288 286 285 288 290 290 288 285 282 281 282 280 280 288 288 284 286 285 284 291 290 283 282 279 276 274 272 271 267 267 269 271 270 268 268 270 270 270 270 270 271 268 265 263 261 260 261 257 256 263 272 277 279 281 284 284 282 277 270 271 271 267 266 262 262 271 272 263 257 260 263 266 273 269 253 243 239 238 237 235 232
294 293 293 293 290 288 287 286 286 286 287 288 288 285 281 279 278 275 276 283 287 286 286 288 285 285 289 287 282 282 280 276 275 272 268 268 269 270 272 274 273 273 275 274 273 274 274 272 270 268 265 263 264 265 264 263 266 271 276 278 280 282 282 281 277 268 264 268 271 270 264 256 259 266 263 259 265 265 263 268 266 252 239 237 238 238 234 231
293 292 292 290 287 286 285 284 285 286 285 286 285 282 277 276 274 270 276 287 288 286 286 286 287 288 288 285 280 280 280 277 275 273 269 269 268 267 267 268 269 274 275 273 275 278 274 270 270 272 268 263 264 267 269 270 267 266 270 273 274 277 279 277 272 268 263 265 268 267 264 259 255 259 262 264 269 267 262 264 260 250 243 239 238 238 233 229
293 292 291 288 286 285 284 283 284 283 283 283 280 278 275 274 274 271 275 281 280 283 286 284 287 286 285 287 283 281 281 277 277 278 274 273 272 271 270 268 267 271 272 272 275 277 275 274 271 271 271 262 258 264 268 268 264 262 264 264 262 265 271 271 269 270 269 268 266 262 263 265 263 263 259 258 264 263 260 264 261 254 250 247 243 240 234 229
293 292 290 287 285 284 282 281 281 279 279 278 276 275 271 270 274 275 275 276 276 282 284 284 286 285 283 284 283 284 284 279 280 281 278 277 276 275 276 274 270 270 272 273 273 271 273 275 268 265 271 265 256 260 263 265 264 262 262 262 259 257 261 265 265 264 267 270 268 261 261 261 261 265 260 256 265 269 264 265 262 258 256 253 248 241 234 229
292 290 288 287 285 283 281 279 278 276 274 273 274 271 266 268 274 276 276 277 279 282 284 284 286 286 284 282 281 285 283 279 281 281 278 278 277 274 275 275 274 273 271 270 271 270 270 271 269 269 270 264 261 265 264 267 269 265 263 262 262 258 257 262 263 261 265 270 267 259 259 260 261 267 268 266 272 273 268 265 261 258 256 250 243 237 233 230
292 290 288 286 284 283 281 276 274 273 270 270 271 268 267 271 274 274 277 279 280 282 285 286 286 285 285 284 280 282 283 280 282 280 276 276 277 275 274 275 276 276 271 268 269 272 272 271 272 274 271 263 262 267 266 264 266 267 265 262 264 262 257 261 265 266 266 267 266 261 261 267 270 271 273 275 277 276 272 268 261 257 253 244 238 236 233 230
291 291 288 285 285 284 279 274 272 271 269 269 268 268 271 273 272 274 278 280 280 282 284 285 284 283 283 282 280 281 282 281 282 281 277 276 277 276 276 276 277 278 275 272 271 271 273 274 272 270 269 267 264 264 264 261 259 263 266 265 266 266 261 259 263 268 266 264 266 262 258 263 266 267 275 280 278 276 272 266 261 256 248 240 237 236 233 231
290 290 286 284 286 284 277 272 270 269 270 270 269 271 273 273 273 275 278 280 280 281 282 280 280 281 280 280 279 281 282 280 280 281 278 276 275 275 276 275 275 279 280 276 273 272 275 277 275 271 269 270 269 265 266 266 261 261 264 264 263 263 262 259 259 262 263 264 267 265 262 261 257 260 271 275 272 272 270 264 259 254 246 241 240 237 235 233
289 287 283 283 286 282 273 271 270 270 271 270 271 273 274 274 275 277 279 281 279 280 281 278 278 281 280 278 278 279 280 277 277 279 277 275 273 274 279 276 273 280 282 278 274 274 275 275 275 275 272 270 270 266 264 266 266 266 265 264 262 259 257 257 256 257 259 262 266 268 266 262 257 259 264 264 265 268 268 263 256 250 246 243 242 238 236 234
287 284 279 282 286 279 271 272 272 272 272 271 271 274 275 276 277 277 279 281 279 278 279 277 278 280 279 278 278 278 278 276 274 274 273 274 274 275 281 279 274 277 280 278 276 274 274 272 272 275 275 271 267 262 259 261 263 265 263 264 264 261 259 260 258 255 256 258 262 265 266 262 261 262 258 259 264 264 262 260 254 249 246 244 242 240 237 235
285 281 276 281 285 278 273 275 274 272 273 273 273 274 276 277 278 279 280 280 278 277 276 275 276 277 277 278 279 277 278 278 276 274 273 274 274 273 278 280 276 276 276 276 276 275 274 272 271 274 274 270 266 262 260 260 260 259 260 261 262 261 260 261 259 258 258 257 256 261 266 265 265 264 259 262 265 260 259 261 256 249 245 244 243 240 238 236
281 278 276 279 283 278 275 275 275 274 274 274 274 275 276 277 277 279 280 280 279 277 277 277 276 276 275 276 277 277 278 277 276 275 274 273 272 271 276 281 279 276 273 272 272 272 271 271 271 271 269 267 267 266 265 263 260 258 258 259 260 258 258 259 261 262 262 260 259 262 266 267 268 268 268 269 268 266 267 266 258 250 245 243 244 242 241 239
279 278 277 279 280 277 274 275 276 276 275 275 276 276 277 278 277 279 280 279 278 278 278 277 276 276 275 275 275 275 276 276 274 274 273 272 270 271 277 282 280 276 274 272 272 272 271 270 272 272 269 268 268 268 268 265 261 259 258 258 259 258 257 258 259 262 262 261 262 261 261 263 267 270 267 266 268 272 274 268 258 252 248 245 245 244 242 241
279 278 277 278 278 275 272 273 274 275 275 277 277 277 277 277 276 276 277 277 277 277 277 276 275 275 275 274 274 274 275 275 274 274 272 271 270 271 278 282 279 275 273 273 273 273 271 269 271 274 273 271 269 269 268 265 262 258 255 257 259 261 262 259 258 261 260 258 260 259 257 259 264 268 267 265 269 272 273 272 263 256 252 248 245 244 243 242
280 277 276 277 277 274 272 272 272 273 275 276 277 276 276 276 275 274 274 276 276 275 275 275 274 274 274 275 276 275 276 275 274 275 274 273 272 273 278 281 278 274 274 276 277 274 269 267 268 269 268 267 266 265 264 264 263 260 258 259 261 263 265 261 259 260 257 258 262 260 259 262 265 268 271 271 273 271 270 273 269 261 256 251 246 243 241 240
280 277 277 278 278 276 274 275 276 275 274 275 276 275 274 274 276 276 275 276 276 276 275 275 275 275 275 276 276 276 277 276 276 277 276 276 275 274 278 280 278 276 276 280 281 274 268 267 266 263 262 262 262 261 261 262 263 262 262 262 259 258 260 259 258 257 255 259 263 258 259 266 267 267 270 273 275 272 267 268 268 264 261 257 252 246 241 239
278 276 276 277 278 278 277 278 280 277 275 274 274 275 275 275 277 277 276 276 277 277 277 277 277 276 276 276 276 276 277 278 278 278 277 276 276 276 279 279 277 277 277 278 278 272 267 267 265 262 262 262 261 261 261 260 260 261 263 263 259 256 257 258 257 257 257 259 260 257 261 268 266 264 266 271 274 272 267 266 266 263 261 259 256 252 246 242
276 275 276 276 275 275 276 279 280 279 277 276 275 275 276 276 277 276 276 278 279 278 277 278 279 279 278 277 276 276 279 280 280 279 278 278 279 279 280 278 275 275 276 275 274 270 267 266 264 263 264 263 262 261 260 259 259 259 260 261 260 258 257 257 257 257 256 257 259 261 264 265 264 262 263 266 268 268 266 265 263 261 260 259 257 254 250 246
275 275 276 276 275 274 275 278 278 278 277 276 276 275 276 275 275 275 276 279 280 279 277 276 279 281 281 280 278 277 279 280 280 280 279 279 280 280 280 278 276 275 275 273 272 270 268 267 266 264 265 264 263 263 262 261 260 259 258 258 259 258 257 256 257 256 254 256 259 262 263 262 260 259 260 261 262 263 263 263 263 263 263 261 258 256 252 248
275 276 277 277 276 275 276 276 276 276 276 276 275 275 275 274 274 277 278 277 278 279 278 277 279 281 281 280 280 278 278 278 279 279 279 279 281 279 278 277 275 276 276 274 272 271 269 268 268 267 267 265 264 264 263 262 262 261 259 257 257 258 257 257 257 257 255 257 258 259 260 260 257 255 257 259 261 261 260 260 261 262 262 259 256 256 254 250
274 275 276 277 276 275 275 275 274 274 276 275 274 275 276 275 276 278 279 277 276 277 279 279 279 280 281 280 279 278 279 280 279 278 277 278 279 278 277 276 274 275 276 273 272 272 270 270 271 270 269 267 265 264 264 264 263 262 260 258 257 258 259 259 258 256 256 258 258 256 257 260 258 256 257 259 260 259 257 256 258 258 258 257 254 254 254 252
275 275 276 276 275 275 275 275 275 274 275 274 273 274 275 277 280 280 279 279 278 278 282 283 280 280 281 280 279 279 282 282 281 280 278 278 278 276 275 275 273 273 274 272 272 272 270 270 271 270 268 268 267 266 265 265 264 261 259 259 258 259 260 260 259 258 257 258 258 256 257 259 260 258 257 258 257 257 256 255 256 256 255 256 256 255 254 252